DHK052 EGNX-EBBR

Flight info

Callsign DHK052
Flight time N/A
Altitude 29000
Route SAPCO UY53 DTY UM605 BENSU Q70 VABIK/N0436F230 Q70 KOK
Aircraft B77L/H-SDE1E2E3FGHIJ2J3J4J5M1RWXY/LB1D1

Departure

Time N/A
Airport East Midlands Airport (EGNX)

Arrival

Time 2026-05-03 22:19
Airport Brussels Airport (EBBR)
Time Latitude Longitude Altitude Speed Heading
2026-05-03 22:00 51.06031 2.94004 26389 ft 464 kts 105°
2026-05-03 22:00 51.05451 2.98881 26021 ft 436 kts 106°
2026-05-03 22:00 51.04906 3.03378 25393 ft 420 kts 106°
2026-05-03 22:00 51.04350 3.07883 24520 ft 412 kts 106°
2026-05-03 22:01 51.03794 3.12330 23550 ft 409 kts 105°
2026-05-03 22:01 51.03240 3.16742 22438 ft 405 kts 105°
2026-05-03 22:01 51.02679 3.21196 21731 ft 426 kts 105°
2026-05-03 22:01 51.02088 3.25871 21743 ft 434 kts 105°
2026-05-03 22:02 51.01502 3.30554 21632 ft 433 kts 105°
2026-05-03 22:02 51.00911 3.35271 20986 ft 435 kts 105°
2026-05-03 22:02 51.00321 3.39975 20363 ft 432 kts 105°
2026-05-03 22:02 50.99744 3.44579 20068 ft 420 kts 105°
2026-05-03 22:03 50.99181 3.49056 19776 ft 409 kts 105°
2026-05-03 22:03 50.98617 3.53497 19269 ft 412 kts 104°
2026-05-03 22:03 50.98044 3.57971 18878 ft 416 kts 104°
2026-05-03 22:03 50.97463 3.62496 18391 ft 422 kts 104°
2026-05-03 22:04 50.96876 3.67059 17736 ft 422 kts 104°
2026-05-03 22:04 50.96293 3.71597 17078 ft 418 kts 104°
2026-05-03 22:04 50.95716 3.76080 16451 ft 413 kts 104°
2026-05-03 22:04 50.95143 3.80512 15826 ft 408 kts 104°
2026-05-03 22:05 50.94581 3.84843 15226 ft 403 kts 104°
2026-05-03 22:05 50.94019 3.89164 14644 ft 398 kts 104°
2026-05-03 22:05 50.93459 3.93444 14058 ft 394 kts 104°
2026-05-03 22:05 50.92975 3.97681 13429 ft 386 kts 97°
2026-05-03 22:06 50.93188 4.01777 12833 ft 389 kts 76°
2026-05-03 22:06 50.94088 4.05787 12287 ft 386 kts 70°
2026-05-03 22:06 50.95047 4.09788 11700 ft 390 kts 70°
2026-05-03 22:06 50.96000 4.13819 11124 ft 390 kts 71°
2026-05-03 22:07 50.96932 4.17820 10745 ft 380 kts 71°
2026-05-03 22:07 50.97822 4.21673 10596 ft 364 kts 71°
2026-05-03 22:07 50.98666 4.25362 10437 ft 348 kts 71°
2026-05-03 22:07 50.99475 4.28912 10294 ft 334 kts 71°
2026-05-03 22:08 51.00246 4.32309 10160 ft 321 kts 71°
2026-05-03 22:08 51.00975 4.35523 10002 ft 299 kts 71°
2026-05-03 22:08 51.01665 4.38576 9821 ft 294 kts 71°
2026-05-03 22:08 51.02363 4.41678 9516 ft 299 kts 71°
2026-05-03 22:09 51.03063 4.44778 9185 ft 298 kts 71°
2026-05-03 22:09 51.03755 4.47852 8867 ft 292 kts 72°
2026-05-03 22:09 51.04433 4.50867 8546 ft 287 kts 72°
2026-05-03 22:10 51.05758 4.56773 7959 ft 284 kts 72°
2026-05-03 22:10 51.06420 4.59730 7669 ft 284 kts 72°
2026-05-03 22:10 51.07084 4.62697 7377 ft 284 kts 72°
2026-05-03 22:10 51.07745 4.65657 7065 ft 283 kts 72°
2026-05-03 22:11 51.08402 4.68604 6767 ft 282 kts 72°
2026-05-03 22:11 51.09046 4.71493 6449 ft 280 kts 72°
2026-05-03 22:11 51.09693 4.74407 6073 ft 280 kts 72°
2026-05-03 22:11 51.10319 4.77313 5761 ft 272 kts 77°
2026-05-03 22:12 51.10376 4.80200 5637 ft 257 kts 107°
2026-05-03 22:12 51.09599 4.82697 5456 ft 251 kts 134°
2026-05-03 22:12 51.08288 4.84494 5203 ft 249 kts 152°
2026-05-03 22:12 51.06711 4.85494 4922 ft 241 kts 171°
2026-05-03 22:13 51.05070 4.85910 4662 ft 237 kts 175°
2026-05-03 22:13 51.03447 4.86122 4370 ft 231 kts 188°
2026-05-03 22:13 51.01966 4.85250 4138 ft 228 kts 216°
2026-05-03 22:13 51.00839 4.83489 3880 ft 228 kts 236°
2026-05-03 22:14 51.00103 4.81254 3627 ft 230 kts 244°
2026-05-03 22:14 50.99448 4.78920 3440 ft 230 kts 245°
2026-05-03 22:14 50.98822 4.76686 3314 ft 219 kts 245°
2026-05-03 22:14 50.98219 4.74514 3212 ft 206 kts 245°
2026-05-03 22:15 50.97652 4.72501 3000 ft 199 kts 244°
2026-05-03 22:15 50.97085 4.70526 2812 ft 191 kts 244°
2026-05-03 22:15 50.96550 4.68669 2595 ft 183 kts 244°
2026-05-03 22:15 50.96036 4.66882 2390 ft 173 kts 244°
2026-05-03 22:16 50.95553 4.65204 2156 ft 160 kts 244°
2026-05-03 22:16 50.95120 4.63698 2028 ft 142 kts 244°
2026-05-03 22:16 50.94727 4.62331 1839 ft 134 kts 244°
2026-05-03 22:16 50.94342 4.61000 1691 ft 130 kts 243°
2026-05-03 22:17 50.93960 4.59693 1503 ft 134 kts 244°
2026-05-03 22:17 50.93574 4.58327 1315 ft 135 kts 243°
2026-05-03 22:17 50.93180 4.56984 1123 ft 135 kts 243°
2026-05-03 22:17 50.92782 4.55616 906 ft 138 kts 243°
2026-05-03 22:18 50.92377 4.54225 746 ft 139 kts 244°
2026-05-03 22:18 50.91979 4.52816 581 ft 140 kts 244°
2026-05-03 22:18 50.91582 4.51407 363 ft 140 kts 244°
2026-05-03 22:18 50.91177 4.50013 173 ft 138 kts 243°
2026-05-03 22:19 50.90796 4.48721 120 ft 118 kts 246°
2026-05-03 22:19 50.90515 4.47728 124 ft 78 kts 245°
2026-05-03 22:19 50.90337 4.47114 127 ft 52 kts 245°
2026-05-03 22:19 50.90288 4.46749 128 ft 30 kts 288°
2026-05-03 22:20 50.90335 4.46586 130 ft 0 kts 300°
2026-05-03 22:20 50.90337 4.46582 130 ft 1 kts 300°
2026-05-03 22:21 50.90350 4.46534 128 ft 9 kts 288°
2026-05-03 22:21 50.90354 4.46507 132 ft 4 kts 282°
2026-05-03 22:21 50.90374 4.46419 131 ft 8 kts 317°
2026-05-03 22:21 50.90426 4.46377 134 ft 8 kts 335°
2026-05-03 22:22 50.90445 4.46363 133 ft 0 kts 336°
2026-05-03 22:22 50.90452 4.46359 135 ft 0 kts 336°
2026-05-03 22:22 50.90452 4.46358 135 ft 0 kts 336°